Tracking 19489 objects as of 22-Jan-2019
HD Live streaming from Space Station
objects crossing your sky now

INTERCOSMOS 25

Track INTERCOSMOS 25 now!
10-day predictions
INTERCOSMOS 25 is classified as:


NORAD ID: 21819
Int'l Code: 1991-086A
Perigee: 447.1 km
Apogee: 2,884.9 km
Inclination: 82.6 °
Period: 119.5 minutes
Semi major axis: 8037 km
RCS: 7.3989 m2 (large)
Launch date: December 18, 1991
Source: Commonwealth of Independent States (former USSR) (CIS)
Launch site: PLESETSK MISSILE AND SPACE COMPLEX (PKMTR)
aabbcc
Your satellite tracking list
Your tracking list is empty




NASA's NSSDC Master Catalog

Two Line Element Set (TLE):
1 21819U 91086A   19021.57055916 -.00000128 +00000-0 -26072-4 0  9990
2 21819 082.5857 073.3559 1516592 284.7102 059.1127 12.04927696182511
Source of the keplerian elements: AFSPC